TGZ695 UGTB-LLBG

Flight info

Callsign TGZ695
Flight time 2h 37m
Altitude 38000
Route DF N11 BARUS N37 ODILI N37 SARPI TBN SIV MUT GZP TOBAL M32 APLON L609 PIKOG
Aircraft B738/M-SDRWY/S

Departure

Time 2026-04-25 12:13
Airport Tbilisi International Airport (UGTB)

Arrival

Time 2026-04-25 14:50
Airport Ben Gurion International Airport (LLBG)
Time Latitude Longitude Altitude Speed Heading
2026-04-25 11:59 41.66861 44.96392 1526 ft 0 kts 43°
2026-04-25 12:05 41.66853 44.96382 1520 ft 2 kts 43°
2026-04-25 12:06 41.66841 44.96367 1523 ft 2 kts 43°
2026-04-25 12:06 41.66829 44.96352 1521 ft 2 kts 50°
2026-04-25 12:06 41.66821 44.96333 1518 ft 2 kts 102°
2026-04-25 12:06 41.66825 44.96321 1522 ft 1 kts 136°
2026-04-25 12:07 41.66826 44.96320 1520 ft 0 kts 136°
2026-04-25 12:08 41.66800 44.96351 1520 ft 6 kts 139°
2026-04-25 12:09 41.66768 44.96389 1524 ft 6 kts 139°
2026-04-25 12:09 41.66720 44.96432 1526 ft 11 kts 161°
2026-04-25 12:09 41.66647 44.96425 1521 ft 10 kts 187°
2026-04-25 12:09 41.66578 44.96400 1526 ft 10 kts 197°
2026-04-25 12:10 41.66510 44.96375 1525 ft 11 kts 194°
2026-04-25 12:10 41.66423 44.96346 1521 ft 15 kts 194°
2026-04-25 12:10 41.66308 44.96308 1525 ft 19 kts 194°
2026-04-25 12:10 41.66173 44.96316 1521 ft 20 kts 157°
2026-04-25 12:11 41.66065 44.96422 1521 ft 19 kts 136°
2026-04-25 12:11 41.65971 44.96547 1523 ft 19 kts 135°
2026-04-25 12:11 41.65865 44.96579 1522 ft 16 kts 219°
2026-04-25 12:11 41.65857 44.96445 1523 ft 15 kts 304°
2026-04-25 12:12 41.65899 44.96386 1520 ft 7 kts 317°
2026-04-25 12:12 41.66005 44.96256 1524 ft 56 kts 317°
2026-04-25 12:12 41.66674 44.95406 1524 ft 139 kts 316°
2026-04-25 12:12 41.67463 44.94420 1943 ft 160 kts 316°
2026-04-25 12:13 41.68245 44.93456 3117 ft 150 kts 316°
2026-04-25 12:13 41.69035 44.92515 3832 ft 160 kts 316°
2026-04-25 12:13 41.69908 44.91435 4307 ft 175 kts 314°
2026-04-25 12:13 41.70771 44.90307 4946 ft 175 kts 313°
2026-04-25 12:14 41.71606 44.89124 5553 ft 176 kts 307°
2026-04-25 12:14 41.72403 44.87835 6014 ft 187 kts 306°
2026-04-25 12:14 41.73274 44.86392 6291 ft 208 kts 305°
2026-04-25 12:14 41.74218 44.84855 6757 ft 220 kts 305°
2026-04-25 12:15 41.75218 44.83235 7203 ft 232 kts 305°
2026-04-25 12:15 41.76275 44.81523 7645 ft 245 kts 306°
2026-04-25 12:15 41.77389 44.79719 8124 ft 258 kts 306°
2026-04-25 12:15 41.78562 44.77818 8565 ft 271 kts 306°
2026-04-25 12:16 41.79796 44.75820 9028 ft 284 kts 306°
2026-04-25 12:16 41.81079 44.73741 9509 ft 294 kts 306°
2026-04-25 12:16 41.82396 44.71609 10157 ft 297 kts 306°
2026-04-25 12:16 41.83722 44.69463 10783 ft 300 kts 306°
2026-04-25 12:17 41.85063 44.67290 11405 ft 305 kts 306°
2026-04-25 12:17 41.86405 44.65112 12024 ft 309 kts 306°
2026-04-25 12:17 41.87785 44.62870 12641 ft 313 kts 306°
2026-04-25 12:17 41.89182 44.60595 13252 ft 319 kts 306°
2026-04-25 12:18 41.90556 44.58234 13877 ft 322 kts 299°
2026-04-25 12:18 41.91499 44.55497 14436 ft 325 kts 289°
2026-04-25 12:18 41.92037 44.52527 14987 ft 330 kts 279°
2026-04-25 12:18 41.92200 44.49425 15559 ft 336 kts 272°
2026-04-25 12:19 41.92175 44.44145 16516 ft 343 kts 271°
2026-04-25 12:19 41.92134 44.39826 17313 ft 347 kts 271°
2026-04-25 12:19 41.92105 44.36565 17918 ft 350 kts 271°
2026-04-25 12:20 41.92079 44.33284 18524 ft 352 kts 271°
2026-04-25 12:20 41.92056 44.29985 19061 ft 354 kts 271°
2026-04-25 12:20 41.92035 44.26712 19601 ft 356 kts 271°
2026-04-25 12:20 41.92014 44.23341 20165 ft 357 kts 271°
2026-04-25 12:21 41.91993 44.19997 20728 ft 358 kts 271°
2026-04-25 12:21 41.91972 44.16699 21308 ft 358 kts 270°
2026-04-25 12:21 41.91951 44.13353 21896 ft 359 kts 270°
2026-04-25 12:21 41.91928 44.09957 22500 ft 359 kts 270°
2026-04-25 12:22 41.91904 44.06601 22986 ft 361 kts 270°
2026-04-25 12:22 41.91880 44.03256 23397 ft 365 kts 270°
2026-04-25 12:22 41.91854 43.99793 23814 ft 369 kts 270°
2026-04-25 12:22 41.91827 43.96325 24148 ft 373 kts 270°
2026-04-25 12:23 41.91799 43.92879 24509 ft 376 kts 270°
2026-04-25 12:23 41.91769 43.89350 24860 ft 379 kts 270°
2026-04-25 12:23 41.91737 43.85796 25237 ft 381 kts 270°
2026-04-25 12:23 41.91705 43.82221 25592 ft 384 kts 270°
2026-04-25 12:24 41.91670 43.78624 25961 ft 386 kts 270°
2026-04-25 12:24 41.91635 43.75010 26345 ft 388 kts 270°
2026-04-25 12:24 41.91599 43.71376 26720 ft 390 kts 270°
2026-04-25 12:24 41.91561 43.67731 27119 ft 391 kts 270°
2026-04-25 12:25 41.91522 43.64079 27492 ft 392 kts 270°
2026-04-25 12:25 41.91482 43.60412 27885 ft 393 kts 270°
2026-04-25 12:25 41.91441 43.56734 28273 ft 393 kts 270°
2026-04-25 12:25 41.91398 43.53061 28684 ft 394 kts 270°
2026-04-25 12:26 41.91356 43.49387 29090 ft 394 kts 270°
2026-04-25 12:26 41.91311 43.45710 29498 ft 394 kts 269°
2026-04-25 12:26 41.91264 43.42035 29926 ft 394 kts 269°
2026-04-25 12:26 41.91216 43.38360 30336 ft 393 kts 269°
2026-04-25 12:27 41.91168 43.34685 30699 ft 393 kts 269°
2026-04-25 12:27 41.91119 43.31070 31062 ft 392 kts 269°
2026-04-25 12:27 41.91068 43.27414 31427 ft 391 kts 269°
2026-04-25 12:27 41.91017 43.23764 31809 ft 390 kts 269°
2026-04-25 12:28 41.90964 43.20128 32181 ft 389 kts 269°
2026-04-25 12:28 41.90911 43.16507 32561 ft 387 kts 269°
2026-04-25 12:28 41.90856 43.12899 32944 ft 385 kts 269°
2026-04-25 12:28 41.90801 43.09299 33248 ft 386 kts 269°
2026-04-25 12:29 41.90746 43.05707 33581 ft 385 kts 269°
2026-04-25 12:29 41.90689 43.02111 33880 ft 384 kts 269°
2026-04-25 12:29 41.90631 42.98533 34230 ft 383 kts 269°
2026-04-25 12:29 41.90573 42.94959 34492 ft 381 kts 269°
2026-04-25 12:30 41.90513 42.91411 34788 ft 380 kts 269°
2026-04-25 12:30 41.90451 42.87868 35014 ft 381 kts 268°
2026-04-25 12:30 41.90178 42.84321 35148 ft 382 kts 260°
2026-04-25 12:30 41.89557 42.80858 35354 ft 384 kts 252°
2026-04-25 12:31 41.88641 42.77485 35518 ft 385 kts 251°
2026-04-25 12:31 41.87679 42.74117 35696 ft 387 kts 250°
2026-04-25 12:31 41.86706 42.70753 35868 ft 387 kts 250°
2026-04-25 12:31 41.85731 42.67380 36050 ft 388 kts 250°
2026-04-25 12:32 41.84757 42.63994 36183 ft 390 kts 250°
2026-04-25 12:32 41.82806 42.57177 36189 ft 398 kts 250°
2026-04-25 12:33 41.81149 42.51369 36191 ft 404 kts 250°
2026-04-25 12:33 41.79121 42.44266 36193 ft 406 kts 250°
2026-04-25 12:34 41.77093 42.37178 36190 ft 408 kts 250°
2026-04-25 12:34 41.75051 42.30061 36192 ft 409 kts 250°
2026-04-25 12:35 41.73007 42.22956 36185 ft 409 kts 250°
2026-04-25 12:35 41.70966 42.15881 36175 ft 407 kts 250°
2026-04-25 12:36 41.68938 42.08871 36179 ft 405 kts 250°
2026-04-25 12:36 41.66921 42.01919 36188 ft 404 kts 250°
2026-04-25 12:37 41.64890 41.94935 36181 ft 402 kts 250°
2026-04-25 12:37 41.62868 41.88003 36179 ft 399 kts 250°
2026-04-25 12:38 41.60849 41.81097 36184 ft 399 kts 250°
2026-04-25 12:38 41.58823 41.74188 36188 ft 400 kts 250°
2026-04-25 12:39 41.56860 41.67507 36181 ft 401 kts 250°
2026-04-25 12:39 41.54812 41.60561 36199 ft 402 kts 250°
2026-04-25 12:40 41.52750 41.53583 36181 ft 405 kts 249°
2026-04-25 12:40 41.50677 41.46586 36196 ft 406 kts 249°
2026-04-25 12:41 41.48593 41.39574 36188 ft 407 kts 249°
2026-04-25 12:41 41.46497 41.32539 36171 ft 408 kts 249°
2026-04-25 12:42 41.44393 41.25497 36164 ft 409 kts 249°
2026-04-25 12:42 41.42281 41.18447 36172 ft 409 kts 249°
2026-04-25 12:43 41.40179 41.11447 36160 ft 409 kts 249°
2026-04-25 12:43 41.36952 41.00928 36158 ft 409 kts 246°
2026-04-25 12:44 41.34484 40.94028 36166 ft 417 kts 245°
2026-04-25 12:45 41.30630 40.83524 36158 ft 424 kts 245°
2026-04-25 12:45 41.26777 40.72886 36464 ft 425 kts 245°
2026-04-25 12:46 41.25503 40.69359 36740 ft 422 kts 245°
2026-04-25 12:46 41.24237 40.65855 37017 ft 420 kts 245°
2026-04-25 12:46 41.22974 40.62364 37253 ft 418 kts 245°
2026-04-25 12:46 41.21712 40.58879 37426 ft 418 kts 245°
2026-04-25 12:47 41.20467 40.55446 37577 ft 418 kts 245°
2026-04-25 12:47 41.19206 40.51972 37752 ft 418 kts 245°
2026-04-25 12:47 41.17942 40.48495 37949 ft 416 kts 245°
2026-04-25 12:47 41.16684 40.45039 38116 ft 415 kts 245°
2026-04-25 12:48 41.14161 40.38118 38146 ft 417 kts 245°
2026-04-25 12:48 41.11627 40.31187 38147 ft 418 kts 245°
2026-04-25 12:49 41.09083 40.24244 38141 ft 418 kts 245°
2026-04-25 12:49 41.06554 40.17361 38147 ft 418 kts 245°
2026-04-25 12:50 41.04004 40.10435 38146 ft 418 kts 245°
2026-04-25 12:50 41.01451 40.03517 38148 ft 418 kts 244°
2026-04-25 12:51 40.98893 39.96603 38155 ft 418 kts 244°
2026-04-25 12:51 40.96333 39.89700 38158 ft 417 kts 244°
2026-04-25 12:52 40.93773 39.82813 38164 ft 417 kts 244°
2026-04-25 12:52 40.91208 39.75931 38157 ft 417 kts 244°
2026-04-25 12:53 40.88639 39.69051 38148 ft 417 kts 244°
2026-04-25 12:53 40.86069 39.62187 38160 ft 416 kts 244°
2026-04-25 12:54 40.83498 39.55335 38148 ft 415 kts 244°
2026-04-25 12:54 40.80926 39.48499 38134 ft 415 kts 244°
2026-04-25 12:55 40.78791 39.42835 38140 ft 414 kts 244°
2026-04-25 12:55 40.75800 39.34920 38118 ft 414 kts 244°
2026-04-25 12:56 40.73227 39.28126 38105 ft 415 kts 244°
2026-04-25 12:56 40.70641 39.21316 38111 ft 415 kts 244°
2026-04-25 12:57 40.68047 39.14498 38098 ft 417 kts 244°
2026-04-25 12:57 40.65446 39.07680 38106 ft 416 kts 244°
2026-04-25 12:58 40.62722 39.00965 38070 ft 417 kts 233°
2026-04-25 12:58 40.60670 38.98276 38133 ft 418 kts 220°
2026-04-25 12:58 40.58305 38.96007 38104 ft 421 kts 217°
2026-04-25 12:59 40.53407 38.91745 38104 ft 423 kts 216°
2026-04-25 12:59 40.51136 38.89340 38103 ft 418 kts 229°
2026-04-25 12:59 40.49284 38.86403 38104 ft 417 kts 234°
2026-04-25 13:00 40.47180 38.82190 38110 ft 416 kts 244°
2026-04-25 13:00 40.43997 38.72959 38125 ft 417 kts 246°
2026-04-25 13:01 40.41639 38.66001 38119 ft 417 kts 246°
2026-04-25 13:01 40.39260 38.59055 38101 ft 417 kts 246°
2026-04-25 13:02 40.36867 38.52118 38112 ft 417 kts 246°
2026-04-25 13:02 40.34472 38.45206 38101 ft 416 kts 245°
2026-04-25 13:03 40.32074 38.38299 38098 ft 416 kts 245°
2026-04-25 13:03 40.29674 38.31403 38097 ft 415 kts 245°
2026-04-25 13:04 40.27275 38.24529 38097 ft 414 kts 245°
2026-04-25 13:04 40.24880 38.17679 38094 ft 414 kts 245°
2026-04-25 13:05 40.22481 38.10835 38088 ft 413 kts 245°
2026-04-25 13:05 40.20081 38.04006 38073 ft 413 kts 245°
2026-04-25 13:06 40.17679 37.97187 38068 ft 412 kts 245°
2026-04-25 13:06 40.15289 37.90415 38060 ft 412 kts 245°
2026-04-25 13:07 40.12878 37.83603 38060 ft 412 kts 245°
2026-04-25 13:07 40.10464 37.76799 38058 ft 413 kts 245°
2026-04-25 13:08 40.08045 37.69994 38063 ft 413 kts 245°
2026-04-25 13:08 40.05616 37.63179 38049 ft 414 kts 245°
2026-04-25 13:09 40.03181 37.56363 38062 ft 414 kts 245°
2026-04-25 13:09 40.00757 37.49594 38057 ft 415 kts 244°
2026-04-25 13:10 39.98307 37.42765 38066 ft 415 kts 244°
2026-04-25 13:10 39.95855 37.35950 38063 ft 415 kts 244°
2026-04-25 13:11 39.93393 37.29120 38076 ft 415 kts 244°
2026-04-25 13:11 39.90948 37.22355 38092 ft 415 kts 244°
2026-04-25 13:12 39.88484 37.15552 38099 ft 415 kts 244°
2026-04-25 13:12 39.86833 37.11000 38113 ft 416 kts 244°
2026-04-25 13:13 39.83541 37.01946 38125 ft 416 kts 244°
2026-04-25 13:13 39.81062 36.95145 38132 ft 416 kts 244°
2026-04-25 13:14 39.78223 36.88613 38135 ft 416 kts 233°
2026-04-25 13:14 39.74266 36.83113 38131 ft 417 kts 226°
2026-04-25 13:15 39.70166 36.77853 38120 ft 417 kts 226°
2026-04-25 13:15 39.66042 36.72541 38098 ft 417 kts 226°
2026-04-25 13:16 39.61931 36.67220 38088 ft 417 kts 226°
2026-04-25 13:16 39.57819 36.61892 38066 ft 418 kts 226°
2026-04-25 13:17 39.53704 36.56566 38065 ft 418 kts 226°
2026-04-25 13:17 39.50283 36.52146 38058 ft 418 kts 226°
2026-04-25 13:18 39.46157 36.46825 38062 ft 418 kts 226°
2026-04-25 13:18 39.42031 36.41512 38058 ft 419 kts 226°
2026-04-25 13:19 39.37901 36.36204 38052 ft 419 kts 226°
2026-04-25 13:19 39.34461 36.31790 38056 ft 420 kts 226°
2026-04-25 13:20 39.29610 36.25577 38045 ft 420 kts 226°
2026-04-25 13:20 39.25459 36.20270 38055 ft 420 kts 226°
2026-04-25 13:21 39.21327 36.14997 38051 ft 420 kts 226°
2026-04-25 13:21 39.17169 36.09700 38049 ft 421 kts 226°
2026-04-25 13:22 39.13001 36.04400 38061 ft 421 kts 226°
2026-04-25 13:23 39.06734 35.96446 38055 ft 421 kts 226°
2026-04-25 13:23 39.02551 35.91152 38058 ft 421 kts 226°
2026-04-25 13:24 38.98367 35.85863 38029 ft 422 kts 226°
2026-04-25 13:24 38.94178 35.80578 38035 ft 422 kts 226°
2026-04-25 13:25 38.90010 35.75328 38057 ft 422 kts 225°
2026-04-25 13:25 38.85811 35.70049 38054 ft 422 kts 225°
2026-04-25 13:26 38.81608 35.64773 38048 ft 423 kts 225°
2026-04-25 13:26 38.77396 35.59497 38048 ft 423 kts 225°
2026-04-25 13:27 38.73182 35.54226 38049 ft 424 kts 225°
2026-04-25 13:27 38.68958 35.48952 38045 ft 424 kts 225°
2026-04-25 13:28 38.64729 35.43681 38041 ft 424 kts 225°
2026-04-25 13:28 38.60495 35.38413 38044 ft 425 kts 225°
2026-04-25 13:29 38.56255 35.33147 38043 ft 425 kts 225°
2026-04-25 13:29 38.52039 35.27903 38036 ft 425 kts 226°
2026-04-25 13:30 38.46035 35.19555 38024 ft 425 kts 229°
2026-04-25 13:31 38.40113 35.11113 38030 ft 425 kts 229°
2026-04-25 13:31 38.36146 35.05529 38028 ft 425 kts 229°
2026-04-25 13:32 38.32168 34.99961 38027 ft 424 kts 229°
2026-04-25 13:32 38.28215 34.94442 38034 ft 424 kts 229°
2026-04-25 13:33 38.24237 34.88898 38027 ft 424 kts 229°
2026-04-25 13:33 38.20256 34.83359 38030 ft 424 kts 228°
2026-04-25 13:34 38.16271 34.77824 38031 ft 424 kts 228°
2026-04-25 13:34 38.12286 34.72298 38024 ft 424 kts 228°
2026-04-25 13:35 38.08321 34.66808 37998 ft 424 kts 228°
2026-04-25 13:35 38.04326 34.61289 37972 ft 424 kts 228°
2026-04-25 13:36 38.00330 34.55776 37944 ft 425 kts 228°
2026-04-25 13:36 37.96324 34.50260 37930 ft 425 kts 228°
2026-04-25 13:37 37.92302 34.44730 37910 ft 427 kts 228°
2026-04-25 13:37 37.88278 34.39209 37899 ft 426 kts 228°
2026-04-25 13:38 37.84262 34.33707 37918 ft 425 kts 228°
2026-04-25 13:38 37.80273 34.28252 37940 ft 424 kts 228°
2026-04-25 13:39 37.76273 34.22790 37960 ft 423 kts 228°
2026-04-25 13:39 37.72274 34.17341 37986 ft 422 kts 228°
2026-04-25 13:40 37.68281 34.11906 38010 ft 422 kts 228°
2026-04-25 13:40 37.64287 34.06481 38031 ft 421 kts 228°
2026-04-25 13:41 37.60290 34.01062 38020 ft 421 kts 227°
2026-04-25 13:41 37.56295 33.95653 38027 ft 421 kts 227°
2026-04-25 13:42 37.52293 33.90246 38022 ft 422 kts 227°
2026-04-25 13:42 37.48290 33.84846 38022 ft 422 kts 227°
2026-04-25 13:43 37.44303 33.79475 38021 ft 423 kts 227°
2026-04-25 13:43 37.40283 33.74070 38015 ft 424 kts 227°
2026-04-25 13:44 37.36244 33.68648 38018 ft 425 kts 227°
2026-04-25 13:44 37.32183 33.63206 38032 ft 429 kts 227°
2026-04-25 13:45 37.28079 33.57715 38028 ft 433 kts 227°
2026-04-25 13:45 37.23938 33.52185 38027 ft 435 kts 227°
2026-04-25 13:46 37.19803 33.46673 38023 ft 436 kts 227°
2026-04-25 13:46 37.15632 33.41122 38027 ft 437 kts 227°
2026-04-25 13:47 37.11458 33.35577 38035 ft 437 kts 227°
2026-04-25 13:47 37.07282 33.30037 38025 ft 437 kts 227°
2026-04-25 13:48 37.03111 33.24515 38028 ft 436 kts 227°
2026-04-25 13:48 36.98944 33.19007 38022 ft 435 kts 227°
2026-04-25 13:49 36.94788 33.13523 38033 ft 434 kts 227°
2026-04-25 13:49 36.90632 33.08048 38023 ft 434 kts 227°
2026-04-25 13:50 36.86504 33.02619 38028 ft 433 kts 227°
2026-04-25 13:50 36.82354 32.97171 38028 ft 432 kts 227°
2026-04-25 13:51 36.78203 32.91729 38025 ft 432 kts 227°
2026-04-25 13:51 36.74056 32.86303 38037 ft 432 kts 227°
2026-04-25 13:52 36.69905 32.80880 38033 ft 432 kts 227°
2026-04-25 13:52 36.65774 32.75491 38030 ft 433 kts 227°
2026-04-25 13:53 36.61590 32.70043 38042 ft 433 kts 227°
2026-04-25 13:53 36.57420 32.64623 38020 ft 433 kts 227°
2026-04-25 13:54 36.53273 32.59241 38006 ft 433 kts 227°
2026-04-25 13:54 36.49108 32.53844 37986 ft 433 kts 227°
2026-04-25 13:55 36.44944 32.48457 37973 ft 432 kts 227°
2026-04-25 13:55 36.40764 32.43056 37947 ft 433 kts 227°
2026-04-25 13:56 36.36580 32.37657 37929 ft 433 kts 227°
2026-04-25 13:56 36.32287 32.32492 37924 ft 435 kts 216°
2026-04-25 13:57 36.26795 32.29323 37932 ft 441 kts 197°
2026-04-25 13:57 36.20679 32.28334 37938 ft 445 kts 188°
2026-04-25 13:58 36.14513 32.27648 37942 ft 445 kts 188°
2026-04-25 13:58 36.08339 32.26922 37940 ft 445 kts 189°
2026-04-25 13:59 36.02167 32.26151 37942 ft 446 kts 189°
2026-04-25 13:59 35.95989 32.25362 37934 ft 446 kts 189°
2026-04-25 14:00 35.90854 32.24706 37937 ft 446 kts 189°
2026-04-25 14:00 35.83664 32.23790 37932 ft 447 kts 189°
2026-04-25 14:01 35.77432 32.22999 37936 ft 447 kts 189°
2026-04-25 14:01 35.71288 32.22221 37931 ft 447 kts 189°
2026-04-25 14:02 35.65098 32.21437 37934 ft 447 kts 189°
2026-04-25 14:02 35.58910 32.20656 37928 ft 447 kts 189°
2026-04-25 14:03 35.52730 32.19876 37926 ft 446 kts 189°
2026-04-25 14:03 35.47549 32.19224 37921 ft 446 kts 189°
2026-04-25 14:04 35.41369 32.18446 37920 ft 446 kts 189°
2026-04-25 14:04 35.35230 32.17675 37925 ft 446 kts 189°
2026-04-25 14:05 35.29000 32.17824 37922 ft 455 kts 173°
2026-04-25 14:05 35.22960 32.20357 37923 ft 464 kts 159°
2026-04-25 14:06 35.17149 32.23835 37910 ft 465 kts 158°
2026-04-25 14:06 35.11331 32.27304 37904 ft 465 kts 158°
2026-04-25 14:07 35.05492 32.30722 37913 ft 465 kts 159°
2026-04-25 14:07 34.99674 32.34101 37902 ft 467 kts 159°
2026-04-25 14:08 34.93802 32.37505 37905 ft 467 kts 159°
2026-04-25 14:08 34.87922 32.40912 37910 ft 468 kts 159°
2026-04-25 14:09 34.82041 32.44334 37911 ft 468 kts 158°
2026-04-25 14:09 34.76200 32.47880 37904 ft 469 kts 158°
2026-04-25 14:10 34.70367 32.51453 37909 ft 469 kts 158°
2026-04-25 14:10 34.64539 32.54998 37902 ft 468 kts 158°
2026-04-25 14:11 34.58747 32.58503 37904 ft 467 kts 158°
2026-04-25 14:11 34.52926 32.62015 37910 ft 467 kts 158°
2026-04-25 14:12 34.47105 32.65521 37897 ft 464 kts 158°
2026-04-25 14:12 34.41367 32.68975 37895 ft 458 kts 158°
2026-04-25 14:13 34.35682 32.72389 37897 ft 455 kts 158°
2026-04-25 14:13 34.30024 32.75781 37897 ft 453 kts 158°
2026-04-25 14:14 34.24386 32.79155 37905 ft 452 kts 158°
2026-04-25 14:14 34.18745 32.82527 37905 ft 453 kts 158°
2026-04-25 14:15 34.13078 32.85908 37906 ft 455 kts 159°
2026-04-25 14:15 34.07392 32.89297 37907 ft 457 kts 159°
2026-04-25 14:16 34.01680 32.92696 37908 ft 459 kts 159°
2026-04-25 14:16 33.95982 32.96083 37907 ft 461 kts 159°
2026-04-25 14:17 33.90218 32.99504 37902 ft 462 kts 159°
2026-04-25 14:17 33.84448 33.02923 37906 ft 463 kts 159°
2026-04-25 14:18 33.78656 33.06350 37904 ft 462 kts 159°
2026-04-25 14:18 33.72885 33.09760 37904 ft 462 kts 159°
2026-04-25 14:19 33.67119 33.13161 37905 ft 461 kts 160°
2026-04-25 14:19 33.61387 33.16536 37898 ft 460 kts 160°
2026-04-25 14:20 33.55635 33.19919 37900 ft 460 kts 160°
2026-04-25 14:20 33.49885 33.23295 37899 ft 459 kts 160°
2026-04-25 14:20 33.47042 33.24962 37691 ft 462 kts 160°
2026-04-25 14:21 33.44140 33.26660 37160 ft 464 kts 160°
2026-04-25 14:21 33.41247 33.28356 36567 ft 460 kts 160°
2026-04-25 14:21 33.38378 33.30037 35974 ft 458 kts 160°
2026-04-25 14:21 33.35515 33.31713 35350 ft 458 kts 160°
2026-04-25 14:22 33.32658 33.33383 34754 ft 456 kts 160°
2026-04-25 14:22 33.29809 33.35047 34168 ft 454 kts 160°
2026-04-25 14:22 33.26976 33.36701 33542 ft 453 kts 160°
2026-04-25 14:22 33.24143 33.38352 32876 ft 451 kts 159°
2026-04-25 14:23 33.21334 33.39989 32221 ft 448 kts 159°
2026-04-25 14:23 33.18535 33.41618 31570 ft 446 kts 159°
2026-04-25 14:23 33.15750 33.43239 30963 ft 444 kts 159°
2026-04-25 14:23 33.12981 33.44849 30359 ft 442 kts 159°
2026-04-25 14:24 33.10225 33.46450 29717 ft 439 kts 159°
2026-04-25 14:24 33.07487 33.48040 29017 ft 436 kts 159°
2026-04-25 14:24 33.04772 33.49615 28334 ft 433 kts 159°
2026-04-25 14:24 33.02071 33.51181 27668 ft 429 kts 159°
2026-04-25 14:25 32.99396 33.52731 27019 ft 426 kts 159°
2026-04-25 14:25 32.96734 33.54272 26377 ft 423 kts 158°
2026-04-25 14:25 32.94089 33.55801 25758 ft 420 kts 158°
2026-04-25 14:25 32.93242 33.56290 25561 ft 419 kts 158°
2026-04-25 14:26 32.88906 33.58795 24565 ft 414 kts 158°
2026-04-25 14:26 32.86323 33.60287 23980 ft 411 kts 158°
2026-04-25 14:26 32.83789 33.61851 23389 ft 411 kts 153°
2026-04-25 14:26 32.81444 33.63825 22708 ft 413 kts 144°
2026-04-25 14:27 32.79377 33.66199 22053 ft 413 kts 138°
2026-04-25 14:27 32.77393 33.68657 21398 ft 411 kts 138°
2026-04-25 14:27 32.75426 33.71112 20764 ft 409 kts 138°
2026-04-25 14:27 32.73471 33.73551 20149 ft 406 kts 138°
2026-04-25 14:28 32.71518 33.75983 19541 ft 404 kts 137°
2026-04-25 14:28 32.69589 33.78389 18944 ft 402 kts 137°
2026-04-25 14:28 32.67743 33.80889 18357 ft 402 kts 133°
2026-04-25 14:28 32.66001 33.83482 17718 ft 401 kts 132°
2026-04-25 14:29 32.64327 33.86054 17121 ft 398 kts 131°
2026-04-25 14:29 32.62650 33.88643 16556 ft 394 kts 131°
2026-04-25 14:29 32.60959 33.91235 15991 ft 390 kts 131°
2026-04-25 14:29 32.59297 33.93760 15448 ft 387 kts 132°
2026-04-25 14:30 32.57664 33.96223 14954 ft 383 kts 132°
2026-04-25 14:30 32.54479 34.00999 14159 ft 371 kts 132°
2026-04-25 14:30 32.52885 34.03380 13758 ft 367 kts 132°
2026-04-25 14:31 32.51307 34.05734 13319 ft 362 kts 132°
2026-04-25 14:31 32.49749 34.08056 12871 ft 358 kts 132°
2026-04-25 14:31 32.48207 34.10353 12442 ft 354 kts 131°
2026-04-25 14:31 32.46676 34.12631 12003 ft 351 kts 131°
2026-04-25 14:32 32.45165 34.14878 11585 ft 347 kts 131°
2026-04-25 14:32 32.43663 34.17111 11167 ft 344 kts 131°
2026-04-25 14:32 32.42177 34.19320 10752 ft 341 kts 131°
2026-04-25 14:32 32.40703 34.21509 10346 ft 339 kts 130°
2026-04-25 14:33 32.39240 34.23681 9944 ft 336 kts 130°
2026-04-25 14:33 32.37910 34.25937 9522 ft 335 kts 120°
2026-04-25 14:33 32.36865 34.28388 9151 ft 332 kts 117°
2026-04-25 14:33 32.35874 34.30837 8768 ft 328 kts 117°
2026-04-25 14:34 32.34896 34.33268 8384 ft 325 kts 117°
2026-04-25 14:34 32.33937 34.35635 8008 ft 322 kts 117°
2026-04-25 14:34 32.32965 34.38012 7642 ft 320 kts 117°
2026-04-25 14:34 32.31984 34.40392 7279 ft 317 kts 117°
2026-04-25 14:35 32.31343 34.41939 7034 ft 316 kts 117°
2026-04-25 14:35 32.30315 34.44411 6659 ft 315 kts 117°
2026-04-25 14:35 32.29349 34.46729 6307 ft 314 kts 117°
2026-04-25 14:35 32.28648 34.48407 6053 ft 313 kts 117°
2026-04-25 14:36 32.27693 34.50690 5996 ft 306 kts 117°
2026-04-25 14:36 32.26752 34.52938 5987 ft 305 kts 117°
2026-04-25 14:36 32.25811 34.55184 5986 ft 306 kts 117°
2026-04-25 14:36 32.24858 34.57454 5989 ft 310 kts 117°
2026-04-25 14:37 32.23901 34.59733 5989 ft 309 kts 117°
2026-04-25 14:37 32.22947 34.62004 5978 ft 309 kts 117°
2026-04-25 14:37 32.21992 34.64276 5989 ft 308 kts 117°
2026-04-25 14:37 32.21001 34.66628 6014 ft 333 kts 117°
2026-04-25 14:38 32.19955 34.69111 5998 ft 340 kts 117°
2026-04-25 14:38 32.18907 34.71600 5983 ft 336 kts 117°
2026-04-25 14:38 32.17872 34.74059 5992 ft 334 kts 117°
2026-04-25 14:38 32.16840 34.76506 5991 ft 333 kts 117°
2026-04-25 14:39 32.15809 34.78950 5997 ft 332 kts 117°
2026-04-25 14:39 32.14806 34.81324 5999 ft 332 kts 117°
2026-04-25 14:39 32.13772 34.83769 6002 ft 333 kts 117°
2026-04-25 14:39 32.12738 34.86214 6008 ft 334 kts 117°
2026-04-25 14:40 32.11700 34.88666 6014 ft 335 kts 117°
2026-04-25 14:40 32.11010 34.90294 6014 ft 336 kts 117°
2026-04-25 14:40 32.09730 34.93311 6008 ft 336 kts 118°
2026-04-25 14:40 32.08698 34.95742 5995 ft 327 kts 117°
2026-04-25 14:41 32.07697 34.98105 5992 ft 318 kts 118°
2026-04-25 14:41 32.06715 35.00418 5985 ft 312 kts 118°
2026-04-25 14:41 32.05759 35.02666 5985 ft 300 kts 118°
2026-04-25 14:41 32.04843 35.04820 5984 ft 287 kts 118°
2026-04-25 14:42 32.03972 35.06870 5986 ft 274 kts 118°
2026-04-25 14:42 32.03687 35.07541 5998 ft 270 kts 118°
2026-04-25 14:42 32.02307 35.10779 6005 ft 264 kts 118°
2026-04-25 14:42 32.01483 35.12707 6010 ft 263 kts 118°
2026-04-25 14:43 32.00629 35.14614 6007 ft 262 kts 127°
2026-04-25 14:43 31.99283 35.16000 5935 ft 256 kts 158°
2026-04-25 14:43 31.97588 35.16496 5749 ft 250 kts 183°
2026-04-25 14:43 31.95906 35.16224 5543 ft 246 kts 193°
2026-04-25 14:44 31.94226 35.15834 5274 ft 247 kts 194°
2026-04-25 14:44 31.92552 35.15437 5130 ft 239 kts 198°
2026-04-25 14:44 31.91209 35.14458 4965 ft 224 kts 233°
2026-04-25 14:44 31.90502 35.12867 4781 ft 215 kts 251°
2026-04-25 14:45 31.90097 35.11226 4675 ft 203 kts 255°
2026-04-25 14:45 31.89825 35.09637 4547 ft 194 kts 269°
2026-04-25 14:45 31.90210 35.08126 4236 ft 196 kts 298°
2026-04-25 14:45 31.90942 35.06772 3918 ft 195 kts 299°
2026-04-25 14:46 31.91638 35.05442 3564 ft 191 kts 300°
2026-04-25 14:46 31.92345 35.04120 3157 ft 190 kts 298°
2026-04-25 14:46 31.93019 35.02828 2876 ft 181 kts 299°
2026-04-25 14:46 31.93658 35.01608 2641 ft 168 kts 300°
2026-04-25 14:47 31.94251 35.00470 2384 ft 157 kts 300°
2026-04-25 14:47 31.94442 35.00104 2314 ft 155 kts 300°
2026-04-25 14:47 31.95384 34.98285 1962 ft 156 kts 298°
2026-04-25 14:47 31.95952 34.97193 1684 ft 157 kts 302°
2026-04-25 14:48 31.96559 34.96115 1409 ft 159 kts 303°
2026-04-25 14:48 31.97167 34.95046 1194 ft 153 kts 301°
2026-04-25 14:48 31.97555 34.94359 1081 ft 149 kts 300°
2026-04-25 14:48 31.98031 34.93315 854 ft 142 kts 298°
2026-04-25 14:49 31.98696 34.91999 590 ft 144 kts 301°
2026-04-25 14:49 31.99066 34.91310 424 ft 149 kts 301°
2026-04-25 14:49 31.99583 34.90265 308 ft 147 kts 301°
2026-04-25 14:49 32.00095 34.89227 123 ft 146 kts 302°
2026-04-25 14:50 32.00576 34.88306 118 ft 112 kts 301°
2026-04-25 14:50 32.00876 34.87724 118 ft 68 kts 301°
2026-04-25 14:50 32.01034 34.87402 118 ft 15 kts 295°
2026-04-25 14:50 32.01061 34.87284 119 ft 15 kts 275°
2026-04-25 14:51 32.01061 34.87166 119 ft 14 kts 268°
2026-04-25 14:51 32.01058 34.87055 119 ft 13 kts 274°
2026-04-25 14:51 32.01051 34.86949 118 ft 13 kts 236°
2026-04-25 14:51 32.00989 34.86937 117 ft 8 kts 147°
2026-04-25 14:52 32.00954 34.86992 116 ft 8 kts 120°
2026-04-25 14:52 32.00927 34.87050 119 ft 8 kts 117°
2026-04-25 14:52 32.00902 34.87107 117 ft 8 kts 122°
2026-04-25 14:52 32.00881 34.87141 118 ft 8 kts 135°
2026-04-25 14:53 32.00797 34.87120 117 ft 12 kts 217°
2026-04-25 14:53 32.00723 34.87070 119 ft 12 kts 210°
2026-04-25 14:53 32.00652 34.87019 119 ft 12 kts 213°
2026-04-25 14:53 32.00583 34.86969 118 ft 11 kts 199°
2026-04-25 14:54 32.00518 34.87010 116 ft 11 kts 139°
2026-04-25 14:54 32.00460 34.87071 119 ft 12 kts 130°
2026-04-25 14:54 32.00451 34.87154 119 ft 7 kts 57°
2026-04-25 14:54 32.00451 34.87155 119 ft 0 kts 58°